Location: Black River Observatory
(43.1000°N, 82.6200°W)
Time: 13:23:26
(UTC-04:00)

Daily predictions for brighter satellites

Satellite Brightness Start Highest point End
(mag) Time Altitude Azimuth Time Altitude Azimuth Time Altitude Azimuth
ATLAS CENTAUR R/B 4.1 19:27:48 10° S 19:32:20 34° ESE 19:43:50 10° NE
Cosmos 2297 4.0 19:37:44 10° NNW 19:43:15 49° ENE 19:48:42 10° SE
Meteor 1-24 Rocket 3.9 19:39:54 10° N 19:45:28 52° ENE 19:50:48 10° SSE
Meteor 1-28 Rocket 3.7 19:42:36 10° NNE 19:46:07 37° E 19:49:34 10° SSE
Cosmos 1378 3.9 19:43:38 10° NNE 19:47:02 31° ENE 19:50:23 10° SE
Cosmos 1607 4.0 19:42:39 10° SSW 19:48:50 89° WNW 19:55:02 10° NNE
Cosmos 1707 2.7 19:45:54 10° N 19:49:47 83° E 19:53:37 10° S
Cosmos 1076 Rocket 4.4 19:47:19 10° NNE 19:51:05 29° ENE 19:54:51 10° SE
SJ-6B 2.9 19:48:25 10° SSE 19:52:18 62° ENE 19:56:19 10° N
Cosmos 1452 Rocket 4.4 19:51:10 10° N 19:55:47 30° ENE 20:00:21 10° ESE
ATLAS 3B R/B 3.8 19:48:41 10° WSW 19:56:07 53° NW 20:03:19 10° NNE
SKYMED 2 3.9 19:51:46 10° N 19:56:07 71° WNW 20:00:25 10° SSW
Cosmos-2242 4.4 19:53:09 10° SE 19:56:07 18° E 19:59:07 10° NE
Cosmos 2369 Rocket 4.1 19:55:59 10° NNE 19:58:27 13° NE 20:00:55 10° ENE
Helios 1B rocket 3.1 19:56:10 10° NNE 19:59:53 32° E 20:03:35 10° SSE
SeaSat 1 3.9 20:00:19 10° ENE 20:03:12 15° ESE 20:06:03 10° SE
Cosmos 1408 Rocket 4.2 20:00:19 10° N 20:04:20 34° ENE 20:08:18 10° SE
Resurs 01 Rocket 1.8 20:05:21 10° SSE 20:09:41 54° ENE 20:14:02 10° N
Okean 3 Rocket 3.7 20:06:19 10° N 20:10:54 88° WSW 20:15:26 10° S
NOSS 3-2 (A) 3.6 20:05:29 10° SSW 20:11:20 54° ESE 20:17:42 10° NE
SAR-Lupe-4 4.2 20:08:03 10° S 20:11:34 58° W 20:15:07 10° NNW
Cosmos 2333 Rocket 3.2 20:06:34 10° SW 20:12:11 53° WNW 20:17:51 10° NNE
Cosmos 292 Rocket 4.2 20:07:38 10° SSW 20:12:23 68° WNW 20:17:13 10° NNE
FengYun 1-2 T 4.4 20:07:36 10° SE 20:12:54 50° ENE 20:18:11 10° N
Resurs 1-3 3.9 20:09:33 10° SE 20:13:45 46° ENE 20:17:58 10° N
USA 238 DEB 4.1 20:09:17 10° SW 20:16:19 69° NW 20:23:22 10° NNE
USA 238 4.1 20:09:23 10° SW 20:16:25 70° NW 20:23:28 10° NNE
CZ-4B DEB 3.8 20:15:36 14° SE 20:17:50 27° ENE 20:20:41 10° N
Spot 1 4.2 20:15:07 10° SSE 20:19:55 84° ENE 20:24:29 10° NNW
Atlas Centaur 2 4.3 20:15:10 10° WSW 20:22:14 30° SSW 20:28:48 10° SE
ATLAS CENTAUR R/B 2.2 20:19:14 10° NW 20:23:20 49° WSW 20:27:06 10° SSE
Cosmos 1072 Rocket 4.4 20:23:09 10° S 20:29:15 83° E 20:35:23 10° N
Cosmos 1743 Rocket 4.3 20:27:03 10° N 20:31:05 32° ENE 20:33:29 19° SE
ALOS 2.4 20:26:59 10° SSE 20:31:29 50° ENE 20:36:01 10° N
In-Cosmos 22 4.2 20:25:50 10° N 20:31:37 67° ENE 20:37:20 10° SSE
Cosmos 1674 4.0 20:29:02 10° NNE 20:32:06 22° ENE 20:32:23 21° E
Nadezhda 4 Rocket 4.3 20:26:11 10° N 20:32:11 44° ENE 20:38:06 10° SSE
Cosmos 1766 3.8 20:34:52 10° SSW 20:38:46 62° W 20:42:45 10° N
FREGAT/IRIS 4.4 20:36:25 10° SSW 20:39:17 34° W 20:42:10 10° NNW
GP-B 4.3 20:35:52 10° NNE 20:39:11 22° ENE 20:39:11 22° ENE
Spot 2 Rocket 3.7 20:34:24 10° S 20:39:25 75° WSW 20:44:29 10° NNW
Cosmos 2237 Rocket 3.7 20:35:27 10° SW 20:40:43 38° WNW 20:46:01 10° N
Cosmos 2056 Rocket 4.5 20:35:59 10° NNW 20:41:14 51° WSW 20:46:27 10° S
NOSS 3-3 (A) 4.5 20:33:56 10° NW 20:41:24 87° NE 20:48:48 12° SE
NOSS 3-3 (C) 4.5 20:34:02 10° NW 20:41:30 86° NE 20:48:52 13° SE
TELKOM 3 4.3 20:41:32 10° NW 20:43:56 28° NNE 20:44:05 28° NNE
OAO 3 Rocket 4.3 20:40:09 10° SW 20:44:18 29° S 20:46:04 23° SE
Cosmos 1513 Rocket 4.5 20:38:48 10° S 20:45:11 83° E 20:51:38 10° N
Helios 1A 3.4 20:43:22 10° S 20:47:31 64° WSW 20:51:42 10° NNW
NOSS 3-2 (C) 3.4 20:42:11 10° SSW 20:48:14 77° ESE 20:54:53 10° NE
CZ-4C R/B 3.6 20:44:41 10° WSW 20:49:46 38° NW 20:55:29 10° NNE
Envisat 4.2 20:50:02 23° ENE 20:50:28 23° ENE 20:54:25 10° NNE
ASTEX 1 3.4 20:46:47 10° NNE 20:51:37 54° E 20:56:24 10° S
CENTAUR R/B 4.0 20:47:26 10° SSE 20:48:51 15° SE 20:48:51 15° SE
ATLAS 5 CENTAUR R/B 1.7 20:47:41 10° SSW 20:52:24 65° ESE 20:57:32 10° NE
CZ-2D R/B 3.2 20:52:08 24° SSE 20:54:21 70° ENE 20:58:15 10° N
Cosmos 1953 2.2 20:51:12 10° S 20:55:11 90° S 20:59:12 10° N
SL-16 R/B 2.8 20:53:33 10° SW 20:59:09 59° WNW 21:04:47 10° NNE
Meteor 2-12 Rocket 4.4 20:53:06 10° S 20:59:14 82° E 21:05:25 10° N
Aureole 2 Rocket 4.3 20:56:57 10° SW 21:01:07 42° WNW 21:05:14 10° N
Cosmos 2034 Rocket 4.1 20:57:17 10° S 21:03:33 80° W 21:09:55 10° N
USA 186 4.0 21:06:04 11° N 21:06:04 11° N 21:06:13 10° N
Cosmos 1766 Rocket 4.4 21:02:12 10° NNW 21:06:29 51° W 21:10:40 10° S
Cosmos 1805 3.9 21:08:24 10° SSW 21:12:16 56° W 21:16:10 10° N
H-2A R/B 4.1 21:14:39 16° NE 21:14:39 16° NE 21:16:11 10° NNE
H-2A R/B 3.0 21:12:11 29° S 21:14:06 69° WSW 21:18:01 10° NNW
Cosmos 724 4.2 21:09:00 10° SSW 21:14:53 76° ESE 21:20:59 10° NE
USA 215 3.7 21:15:46 10° NE 21:22:11 61° NNW 21:28:35 10° WSW
Cosmos 1544 3.9 21:24:15 10° SSW 21:27:53 52° W 21:31:34 10° N
Cosmos 1470 4.1 21:34:27 31° N 21:34:27 31° N 21:36:36 10° N
Cosmos-2242 4.4 21:29:18 10° SSW 21:33:23 39° WNW 21:37:31 10° N
ERS-1 Rocket 2.9 21:34:40 64° ENE 21:34:40 64° ENE 21:39:32 10° N
Cosmos 1627 Rocket 4.4 21:29:56 10° N 21:36:05 64° E 21:36:58 58° ESE
Cosmos 1842 Rocket 3.7 21:39:26 69° WSW 21:39:39 71° W 21:44:00 10° N
SeaSat 1 2.6 21:36:13 10° NNE 21:41:10 73° WNW 21:46:05 10° SW
Cosmos 1500 Rocket 3.9 21:36:54 10° NNW 21:41:16 63° W 21:41:42 59° SW
Cosmos 2369 Rocket 2.1 21:37:58 10° NNW 21:43:36 66° ENE 21:43:36 66° ENE
Cosmos 1603 4.1 21:40:30 10° SW 21:46:10 64° WNW 21:51:55 10° NNE
Cosmos 839 Rocket 4.1 21:40:24 10° NNW 21:48:18 72° NE 21:49:20 62° ESE
Cosmos 2151 4.2 21:48:54 10° N 21:51:23 35° N 21:51:23 35° N
Cosmos 1943 Rocket 3.2 21:49:52 10° N 21:53:53 33° NNE 21:53:53 33° NNE
Meteor 1-11 4.3 21:57:38 10° N 22:02:52 72° N 22:02:52 72° N
Exosat Rocket 4.4 21:58:27 10° NNW 22:05:00 81° ENE 22:06:20 65° SE
Cosmos 1655 Rocket 3.9 22:06:36 10° N 22:12:38 82° NW 22:12:38 82° NW
Cosmos 2279 Rocket 4.4 22:20:11 54° N 22:20:11 54° N 22:24:52 10° N
H-2A R/B 4.3 22:24:26 14° NNE 22:24:26 14° NNE 22:25:21 10° N
Envisat 4.2 22:30:15 40° WNW 22:30:15 40° WNW 22:34:04 10° NNW
ATLAS 5 CENTAUR R/B 4.0 22:33:36 10° W 22:37:35 24° NW 22:41:49 10° NNE
